Location: Passau
(48.5830°N, 13.4830°E)
Time: 05:05:29
(UTC+02:00)

Vanguard 1 - Pass Details

Date: 04 August 2021
Orbit: 652 x 3831 km, 34.3° (Epoch: 16 September)

Event Time Altitude Azimuth Distance (km) Brightness Sun altitude
Rises 16:13:41 0° 255° (WSW) 3,941 14.0 41.6°
Reaches altitude 10° 16:17:27 10° 233° (SW) 3,417 13.9 41.1°
Maximum altitude 16:22:13 16° 199° (SSW) 3,547 13.6 40.3°
Drops below altitude 10° 16:28:28 10° 169° (SSE) 4,712 13.7 39.4°
Sets 16:35:32 0° 151° (SSE) 6,457 14.2 38.3°
